Home > Time Zones > World Clock > Weather > U.S.A. > Erie > Past weeks

Flag for U.S.A. Weather past 2 weeks in Erie, Pennsylvania, U.S.A.

Now
54 °F

Clear.


Feels Like: 51 °F
Forecast: 49 / 54 °F
Wind: 10 mph from Northwest

Location: Erie International Airport

Current Time: Oct 26, 2014 at 4:41:35 AM

Latest Report: Oct 26, 2014 at 3:51 AM


Visibility: 10 mi

Pressure: 29.76 "Hg

Humidity: 51%

Dew point: 36 °F

Location of ErieLocation

Historic Weather in Erie — Graph

°F

Erie temperature yesterday

Maximum temperature yesterday: 64 °F (at 12:51 PM)
Minimum temperature yesterday: 51 °F (at 1:51 AM)
Average temperature yesterday: 57 °F

Past Weeks' High & Low Weather Summary

 TemperatureHumidityPressure
High81 °F (Oct 14, 4:51 PM)94% (Oct 16, 2:59 AM)30.27 "Hg (Oct 16, 2:59 AM)
Low38 °F (Oct 12, 2:51 AM)38% (Oct 12, 1:51 PM)29.52 "Hg (Oct 17, 2:51 PM)
Average55 °F72%29.94 "Hg
* Reported Oct 11 2:51 AM — Oct 26 2:51 AM, Erie, Weather by CustomWeather, © 2014

Note: Actual official high and low records may vary slightly from our data, if they occured in-between our weather recording intervals... More about our weather records

Advertising

Erie weather history for previous 24 hours

 ConditionsComfort  
Time TempWeatherWind HumidityBarometerVisibility
2:51 AM
Oct 26
55 °FClear.13 mph55%29.76 "Hg10 mi
1:51 AM56 °FClear.13 mph46%29.75 "Hg10 mi
12:51 AM57 °FClear.12 mph46%29.73 "Hg10 mi
11:51 PM
Oct 25
56 °FPassing clouds.9 mph62%29.75 "Hg10 mi
10:51 PM59 °FClear.12 mph48%29.73 "Hg10 mi
9:51 PM60 °FClear.14 mph60%29.70 "Hg10 mi
8:51 PM59 °FClear.12 mph75%29.68 "Hg10 mi
7:51 PM58 °FClear.7 mph81%29.70 "Hg8 mi
6:51 PM60 °FSunny.10 mph75%29.71 "Hg8 mi
5:51 PM59 °FPartly sunny.17 mph78%29.71 "Hg7 mi
4:51 PM59 °FPartly sunny.14 mph75%29.70 "Hg7 mi
3:51 PM59 °FOvercast.15 mph78%29.72 "Hg7 mi
2:51 PM60 °FOvercast.21 mph75%29.72 "Hg8 mi
1:51 PM60 °FOvercast.18 mph72%29.74 "Hg10 mi
12:51 PM64 °FOvercast.13 mph56%29.75 "Hg10 mi
11:51 AM62 °FPartly sunny.14 mph58%29.77 "Hg10 mi
10:51 AM59 °FMostly cloudy.14 mph64%29.80 "Hg10 mi
9:51 AM58 °FPartly sunny.14 mph67%29.83 "Hg10 mi
8:51 AM56 °FSunny.10 mph67%29.85 "Hg10 mi
7:51 AM53 °FPassing clouds.9 mph69%29.88 "Hg10 mi
6:51 AM53 °FMostly cloudy.8 mph69%29.89 "Hg10 mi
5:51 AM53 °FOvercast.7 mph69%29.90 "Hg10 mi
4:51 AM53 °FOvercast.6 mph72%29.90 "Hg10 mi
Weather by CustomWeather, © 2014

See weather overviewHow to use our weather pages